RH
11 12 14 13 13 14 14 18 24 47 23 29 38 39 59 66 59 53 50 43 42 35 27 27 27 26 27 34 43 47 48 55 50 47 43 75 48 76 68 73 51 52 60 53
11 12 10 8 9 13 16 16 18 31 22 21 24 37 45 47 43 49 49 47 47 35 27 33 34 27 26 33 41 49 52 59 56 45 49 42 77 74 43 46 50 58 51 53
12 10 8 8 11 17 18 16 18 19 18 14 18 38 47 55 45 45 47 44 46 36 29 42 39 35 28 34 39 49 55 60 58 54 48 48 53 71 44 53 46 47 50 50
11 8 10 11 16 16 18 13 14 16 20 22 18 34 39 49 53 49 51 51 46 40 35 38 49 42 29 31 35 47 55 58 56 59 66 66 52 50 66 57 76 49 49 55
12 10 12 15 16 14 13 14 15 14 16 19 21 48 80 38 53 51 53 51 44 47 31 39 38 43 32 29 34 42 56 62 61 63 76 54 61 72 72 71 68 60 60 54
10 8 11 12 12 12 14 15 18 16 14 17 14 22 86 39 39 37 44 51 42 45 46 37 37 43 38 28 31 38 56 66 62 61 63 67 59 66 75 58 52 43 44 49
17 12 12 14 15 14 17 18 24 24 20 17 11 20 60 32 31 31 35 34 35 41 49 40 51 40 40 31 32 36 52 65 62 59 60 64 62 59 59 57 51 74 57 47
18 20 17 16 17 18 18 15 17 29 19 13 11 28 32 28 31 34 41 35 33 27 32 49 38 42 44 39 32 35 48 61 62 61 65 66 64 50 46 53 61 48 59 38
15 16 12 13 14 14 18 17 8 10 10 11 18 30 29 31 36 52 66 58 47 31 32 36 39 62 43 40 37 38 46 54 57 55 61 66 65 64 49 55 52 48 52 67
16 19 11 10 11 12 14 12 14 12 21 19 23 31 29 38 46 66 76 72 62 48 33 38 44 58 84 41 38 36 40 49 54 53 54 55 58 61 59 52 56 51 49 46
12 14 16 12 14 15 15 16 14 10 11 15 26 29 28 44 55 73 77 77 76 68 65 58 77 90 71 37 42 39 37 43 48 50 52 54 52 53 58 56 55 56 53 53
13 12 17 14 12 12 12 14 14 16 20 12 20 35 32 36 45 62 71 72 68 66 66 72 74 87 92 78 73 87 45 36 39 45 51 50 50 51 50 57 55 57 61 54
14 14 19 18 14 13 14 13 14 11 11 21 15 38 34 36 42 51 64 63 65 62 59 64 69 70 74 77 75 83 84 85 44 40 40 47 48 49 51 52 55 57 59 59
31 13 18 20 17 13 17 15 14 14 16 17 18 42 40 41 53 60 60 60 58 59 58 54 56 69 71 82 91 86 85 73 70 78 50 45 50 49 48 54 56 53 60 61
16 20 18 16 14 13 14 14 14 16 15 18 34 36 36 38 42 52 55 54 56 56 55 55 56 58 63 69 77 81 84 82 84 72 62 76 50 53 54 56 60 60 58 59
15 23 21 19 15 13 14 12 13 14 15 16 25 41 35 34 37 39 43 50 54 54 50 48 49 50 53 60 67 79 80 80 84 84 82 79 86 85 75 60 63 65 68 65
24 19 26 21 16 14 16 13 13 12 14 14 27 36 34 37 37 38 40 42 45 46 46 44 43 42 44 43 49 61 78 74 82 83 80 81 83 86 90 82 77 76 72 67
27 31 23 22 24 29 17 14 10 12 14 18 30 33 33 35 36 35 34 38 40 39 39 38 33 36 41 38 40 46 46 73 80 80 79 86 84 84 85 89 84 81 79 80
18 26 24 25 22 20 20 21 15 15 22 18 26 29 30 28 32 41 36 36 38 37 35 35 32 33 38 39 38 43 43 46 51 62 76 81 82 85 85 86 90 88 91 84
17 26 25 26 34 26 23 19 20 14 24 24 24 27 26 25 27 42 38 33 33 32 33 35 34 31 32 38 34 40 39 42 49 53 56 58 69 80 82 82 84 90 88 89
34 33 32 28 32 24 28 26 21 29 38 30 25 29 28 27 39 41 34 35 33 33 35 36 36 36 38 37 37 45 44 44 48 50 50 54 59 65 77 87 88 86 83 89
37 42 34 32 37 44 28 27 29 44 37 32 33 33 33 34 33 33 34 35 35 35 35 34 37 38 39 40 41 47 52 51 53 53 55 58 58 56 51 67 84 86 84 86
44 31 43 29 45 44 33 32 36 31 37 36 33 30 32 32 33 34 36 37 36 37 39 36 38 42 42 44 46 52 55 55 56 56 59 58 57 54 57 63 62 52 72 74
33 32 42 44 36 38 34 32 30 26 28 28 28 29 29 32 33 35 36 37 39 41 44 40 46 49 54 55 55 55 53 52 54 58 59 53 53 52 50 45 42 38 40 46
42 41 46 44 35 37 36 30 30 30 30 28 30 30 32 33 35 36 38 42 42 44 44 46 50 54 56 55 57 52 53 53 51 52 48 47 42 43 44 46 39 42 46 50
31 45 68 75 38 40 34 36 32 36 35 34 33 34 36 36 38 39 40 42 45 47 48 51 54 56 58 62 61 60 61 67 65 56 44 39 39 37 36 35 34 64 70 77
Wind_Speed
17 15 18 20 21 21 16 15 13 11 15 10 11 20 19 16 17 18 16 14 11 16 15 17 15 14 15 14 13 12 10 11 8 8 8 3 7 2 3 2 6 5 4 5
14 18 17 17 16 14 20 19 18 4 10 8 14 17 16 17 14 17 15 16 12 18 18 16 13 16 15 15 14 13 11 12 9 7 6 4 1 3 6 6 5 4 5 4
15 14 15 13 16 15 18 15 14 11 9 15 13 18 20 10 8 9 15 14 13 15 18 14 14 14 15 16 15 13 12 13 11 8 6 2 2 6 6 7 7 7 6 5
15 9 13 12 17 19 17 17 19 21 15 12 18 10 19 23 13 14 10 8 12 16 16 17 8 12 16 16 15 14 13 12 12 10 5 8 7 5 4 6 4 8 6 3
16 13 13 18 17 19 13 9 5 10 17 11 22 10 14 18 17 16 18 16 17 13 18 19 21 13 14 17 16 15 14 12 11 10 9 8 9 7 12 8 7 4 5 6
12 10 15 17 16 17 3 17 12 12 14 13 14 11 14 16 15 16 11 12 16 19 16 14 17 17 14 18 17 16 15 13 12 13 11 9 6 4 5 4 5 9 9 9
6 16 16 11 16 13 9 13 12 12 14 11 18 7 8 13 6 9 8 11 14 18 21 21 13 16 17 18 18 17 16 14 14 14 13 12 9 7 3 5 5 8 6 8
12 16 10 13 15 14 18 21 13 13 14 14 11 13 12 13 10 11 13 7 7 18 16 18 21 15 15 16 19 17 17 15 15 15 13 11 11 8 8 8 4 5 3 2
15 12 10 4 14 9 18 21 25 15 18 15 14 16 14 13 13 15 7 8 14 7 22 21 17 8 18 17 19 17 16 16 15 16 13 12 11 12 8 8 9 8 5 5
10 14 15 11 9 13 13 15 20 10 14 16 18 18 15 15 12 8 10 11 13 16 5 9 15 12 9 18 17 20 18 16 16 15 14 13 13 12 11 7 8 7 5 5
11 3 12 9 14 16 11 13 15 14 16 12 14 10 18 15 11 10 9 11 12 14 14 14 17 11 16 15 14 17 18 17 15 13 13 14 14 14 12 11 10 9 9 8
6 9 12 17 5 4 12 11 17 12 18 14 6 11 16 14 17 14 11 10 11 12 12 14 13 16 20 15 13 11 6 17 16 13 12 12 12 12 13 12 12 11 10 10
3 11 8 6 8 8 11 12 11 15 16 12 16 13 17 10 17 16 13 12 12 13 15 16 15 17 17 16 13 15 14 14 9 16 14 13 12 13 13 13 13 11 11 11
6 13 7 6 3 12 19 7 9 14 11 11 2 25 20 19 17 13 14 13 13 14 16 17 17 17 17 17 16 16 15 16 13 11 9 13 12 12 12 12 10 12 11 11
7 9 6 6 6 8 7 10 7 15 17 10 19 20 20 16 18 17 12 12 13 14 15 15 15 15 16 16 14 13 13 14 14 14 11 10 5 11 10 9 11 13 11 12
5 5 7 6 0 0 5 7 5 5 4 8 18 18 16 16 13 13 13 13 12 12 13 13 13 13 12 12 10 9 11 13 13 12 15 16 13 11 6 10 11 11 12 13
6 5 7 12 5 5 11 12 11 7 5 9 17 18 15 15 14 12 12 11 11 11 11 11 12 12 11 12 11 8 6 8 10 12 13 14 13 11 12 11 7 8 10 12
5 7 7 9 4 12 6 6 2 7 7 7 14 17 16 14 13 10 8 9 9 8 8 8 9 10 10 11 11 10 8 7 6 8 10 11 12 12 11 11 11 9 8 9
7 7 8 12 8 3 7 5 7 12 11 6 13 10 11 11 14 11 7 5 7 6 7 7 8 8 8 9 10 10 9 9 9 8 5 6 9 10 12 11 12 13 10 11
8 7 8 8 11 14 17 12 5 0 11 9 8 11 11 11 12 13 7 4 5 6 7 8 8 8 8 9 9 10 10 10 10 10 10 10 5 6 7 10 12 12 13 12
8 7 10 10 7 3 11 8 4 10 7 11 8 8 5 3 10 9 4 3 3 4 5 8 8 8 8 9 10 9 9 10 11 11 11 10 9 10 5 5 6 8 12 12
7 6 7 10 10 12 11 7 7 11 11 10 9 7 5 4 4 3 4 4 5 5 5 5 7 7 8 10 10 10 9 10 11 12 12 11 11 8 9 9 6 7 8 10
6 4 4 4 5 7 9 5 10 8 10 5 4 8 4 3 2 3 4 5 6 6 7 7 8 8 8 9 9 12 12 12 12 12 13 12 12 11 8 10 9 8 6 6
6 2 4 6 8 5 7 5 5 5 8 8 6 6 5 5 4 5 5 6 7 9 8 8 9 9 9 11 13 14 13 13 14 14 14 13 12 12 12 8 9 9 8 6
5 4 6 8 3 6 8 8 8 7 7 7 6 6 6 3 3 3 5 5 6 7 7 8 7 8 10 11 13 13 13 15 14 14 14 14 12 13 11 10 8 8 9 6
9 7 6 5 6 10 7 13 11 10 9 8 8 8 6 4 2 2 2 4 6 7 7 7 8 10 10 10 11 13 12 14 14 15 12 11 12 11 11 12 12 12 14 11
Wind_Direction
199 210 208 202 211 232 219 217 253 156 150 175 161 133 154 169 192 172 181 186 197 185 173 166 178 172 162 157 164 169 173 156 186 170 177 160 202 191 162 25 124 140 163 165
185 222 201 221 214 243 258 215 172 88 146 225 134 137 141 173 159 167 183 176 201 199 172 171 172 171 173 166 167 171 177 162 203 187 227 177 113 248 166 141 163 192 151 171
204 201 217 216 203 216 238 220 137 163 177 234 167 134 139 164 155 166 172 199 188 213 174 168 178 177 175 169 173 175 180 167 198 224 220 197 106 203 172 149 186 176 162 190
225 210 195 208 196 217 207 232 152 214 191 194 197 156 165 153 168 171 172 184 221 217 171 169 178 191 179 166 174 168 179 181 186 222 196 169 224 187 214 154 144 139 182 154
204 184 188 207 213 212 225 167 209 192 218 201 194 121 305 151 160 173 168 211 194 211 194 185 176 193 205 167 172 170 179 185 188 202 256 176 245 108 244 102 154 91 146 171
225 215 197 208 215 202 289 163 197 224 240 239 219 189 205 166 172 177 184 178 212 177 216 217 183 182 209 171 177 174 175 187 198 192 207 251 246 270 17 139 163 172 178 174
190 193 203 241 198 195 171 195 192 208 217 228 220 156 101 72 52 99 157 206 192 191 177 199 187 197 193 190 183 175 176 190 197 200 203 209 227 258 226 226 193 313 176 188
185 186 168 210 234 182 205 210 207 192 206 206 206 134 114 120 114 70 23 360 268 201 200 185 191 198 195 193 186 188 174 189 199 209 209 204 210 218 216 212 268 253 352 215
182 165 123 271 252 269 190 235 229 273 208 212 129 90 125 114 93 65 47 355 360 287 180 195 208 178 196 195 185 187 182 188 201 207 207 208 207 227 231 225 198 218 166 213
306 129 191 169 233 255 272 229 240 246 251 214 130 160 142 139 96 67 40 27 17 351 245 145 176 185 218 191 178 185 189 189 200 208 204 208 210 211 224 225 235 255 289 248
309 271 158 180 205 209 210 242 246 249 262 215 153 112 112 112 97 88 59 39 21 31 30 36 37 348 311 181 188 179 190 194 198 204 207 207 206 206 210 216 218 222 235 254
247 290 163 203 84 319 303 246 219 245 231 273 10 91 98 131 123 99 82 55 42 42 51 44 47 21 32 22 34 11 231 195 197 203 202 212 217 212 206 213 220 216 220 225
326 254 140 181 188 206 238 218 273 258 276 270 254 133 127 130 97 93 89 75 56 49 43 49 35 34 32 39 38 20 24 358 301 193 204 203 213 214 222 213 214 215 215 222
286 280 260 16 60 201 207 226 234 273 243 245 177 137 143 135 115 96 98 89 76 59 49 47 44 40 38 28 24 16 10 360 358 1 297 192 212 232 223 219 231 216 213 220
289 265 324 60 12 356 163 199 218 238 256 311 128 144 140 128 119 120 98 84 79 75 70 59 50 46 44 41 32 25 17 3 350 353 344 1 257 212 242 250 220 244 236 215
232 255 262 203 347 339 229 166 269 293 291 256 118 107 110 107 114 108 108 104 84 73 58 60 65 62 61 62 58 44 25 13 4 7 7 8 5 355 308 223 230 236 235 249
266 236 225 244 143 246 238 215 210 187 236 265 154 139 136 144 132 116 106 86 77 69 60 51 50 48 37 37 49 76 73 40 28 16 9 1 358 355 359 332 299 244 232 235
231 237 241 258 171 241 77 14 261 176 174 67 88 126 150 132 117 99 78 92 82 66 57 41 37 34 26 26 23 21 43 99 71 33 17 0 358 351 343 336 319 264 253 253
277 248 234 256 216 159 153 174 188 196 154 177 134 131 124 144 136 133 103 74 75 54 45 27 20 10 13 17 9 6 4 11 25 28 41 19 3 347 340 332 334 323 295 265
223 253 267 206 257 236 69 103 25 19 189 154 157 164 159 171 207 118 119 84 57 33 23 10 356 348 3 3 357 355 355 353 11 2 359 353 3 341 335 332 326 322 319 300
198 218 227 228 231 209 102 118 165 215 94 142 172 148 155 172 54 96 92 56 27 23 9 352 349 342 350 346 345 336 342 346 350 342 336 337 338 329 288 301 317 322 319 312
200 206 215 244 225 228 130 149 231 85 116 116 113 119 121 75 86 81 42 6 343 343 340 356 332 336 337 334 329 327 326 333 330 324 322 323 320 319 326 321 296 289 300 296
265 255 304 281 45 82 141 59 119 128 137 139 158 129 156 171 114 58 38 31 19 6 1 350 345 331 331 337 327 317 318 318 313 313 311 311 311 308 297 304 295 288 239 292
229 305 265 350 157 151 136 117 138 164 118 123 117 126 138 123 119 102 63 35 21 18 355 354 352 345 345 348 333 324 311 304 304 301 298 296 296 299 295 287 299 295 298 305
262 143 240 244 204 181 183 177 156 140 132 128 123 127 114 134 124 48 57 45 26 7 356 342 338 333 323 330 324 323 316 308 296 291 292 291 286 286 289 287 275 291 296 299
230 209 203 229 237 204 234 183 174 166 163 162 157 150 144 145 117 105 66 33 39 358 348 347 338 315 328 327 322 322 323 324 311 304 288 287 298 295 288 294 290 225 227 249